TimeAKDT,TemperatureF,Dew PointF,Humidity,Sea Level PressureIn,VisibilityMPH,Wind Direction,Wind SpeedMPH,Gust SpeedMPH,PrecipitationIn,Events,Conditions,WindDirDegrees,DateUTC
12:53 AM,33.1,27.0,78,29.82,10.0,ESE,3.5,-,N/A,,Clear,120,2013-04-13 08:53:00
1:53 AM,35.1,28.9,78,29.84,10.0,Calm,Calm,-,N/A,,Clear,0,2013-04-13 09:53:00
2:53 AM,33.1,27.0,78,29.86,10.0,Calm,Calm,-,N/A,,Clear,0,2013-04-13 10:53:00
3:53 AM,32.0,27.0,82,29.88,10.0,ESE,3.5,-,N/A,,Clear,110,2013-04-13 11:53:00
4:53 AM,32.0,27.0,82,29.89,10.0,Calm,Calm,-,N/A,,Partly Cloudy,0,2013-04-13 12:53:00
5:53 AM,32.0,26.1,79,29.90,10.0,East,3.5,-,N/A,,Clear,90,2013-04-13 13:53:00
6:53 AM,30.9,26.1,82,29.91,10.0,Calm,Calm,-,N/A,,Clear,0,2013-04-13 14:53:00
7:53 AM,35.1,28.0,76,29.92,10.0,Calm,Calm,-,N/A,,Clear,0,2013-04-13 15:53:00
8:53 AM,37.9,28.9,70,29.94,10.0,Calm,Calm,-,N/A,,Clear,0,2013-04-13 16:53:00
9:53 AM,39.9,27.0,60,29.95,10.0,Calm,Calm,-,N/A,,Clear,0,2013-04-13 17:53:00
10:53 AM,42.1,30.0,62,29.96,10.0,SW,3.5,-,N/A,,Partly Cloudy,220,2013-04-13 18:53:00
11:53 AM,43.0,25.0,49,29.97,10.0,WSW,3.5,-,N/A,,Clear,240,2013-04-13 19:53:00
12:53 PM,44.1,28.9,55,29.99,10.0,SW,8.1,-,N/A,,Partly Cloudy,230,2013-04-13 20:53:00
1:53 PM,46.0,26.1,46,30.00,10.0,SW,4.6,-,N/A,,Scattered Clouds,220,2013-04-13 21:53:00
2:53 PM,44.1,27.0,51,30.01,10.0,SW,6.9,-,N/A,,Scattered Clouds,220,2013-04-13 22:53:00
3:53 PM,44.1,28.9,55,30.02,10.0,SW,9.2,-,N/A,,Scattered Clouds,220,2013-04-13 23:53:00
4:53 PM,44.1,28.9,55,30.04,10.0,SW,8.1,-,N/A,,Mostly Cloudy,230,2013-04-14 00:53:00
5:53 PM,44.1,30.0,58,30.04,10.0,Calm,Calm,-,N/A,,Mostly Cloudy,0,2013-04-14 01:53:00
6:53 PM,42.1,32.0,67,30.05,10.0,South,9.2,-,N/A,,Mostly Cloudy,180,2013-04-14 02:53:00
7:53 PM,41.0,34.0,76,30.06,10.0,SSE,9.2,-,N/A,,Mostly Cloudy,150,2013-04-14 03:53:00
8:53 PM,39.9,34.0,79,30.08,10.0,SE,6.9,-,N/A,,Mostly Cloudy,140,2013-04-14 04:53:00
9:04 PM,39.2,35.6,87,30.08,10.0,SE,8.1,-,N/A,,Overcast,140,2013-04-14 05:04:00
9:53 PM,39.0,33.1,79,30.08,10.0,East,4.6,-,N/A,,Overcast,90,2013-04-14 05:53:00
10:37 PM,37.4,32.0,81,30.09,10.0,East,4.6,-,N/A,,Mostly Cloudy,90,2013-04-14 06:37:00
10:53 PM,37.0,32.0,82,30.09,10.0,East,4.6,-,N/A,,Scattered Clouds,80,2013-04-14 06:53:00
11:53 PM,35.1,30.9,85,30.10,10.0,East,4.6,-,N/A,,Clear,90,2013-04-14 07:53:00